Location: Neuvy Saint Sepulchre
(46.5953°N, 1.8122°E)
Time: 11:43:59
(UTC+02:00)

ISS - Pass Details

Date: 21 April 2026
Orbit: 415 x 424 km, 51.6° (Epoch: 14 April)

Event Time Altitude Azimuth Distance (km) Brightness Sun altitude
Exits shadow 04:41:06 13° 135° (SE) 1,325 -1.2 -20.4°
Maximum altitude 04:41:10 13° 133° (SE) 1,325 -1.2 -20.3°
Drops below altitude 10° 04:42:47 10° 104° (ESE) 1,497 -0.6 -20.1°
Sets 04:45:46 0° 76° (ENE) 2,369 1.1 -19.8°
